EW0727 Falmouth VA US current weather conditions

sailwx.info

Wind from 301 at 1 knots gusting 5

Air temperature 2.2° C
Dewpoint 1.5° C

Last reported at 2019-Dec-14 00:00 UTC.
Time now 2019-Dec-14 00:35 UTC

Location: N 38°22' W 077°30'.
View on Google Maps.

See reports from other nearby stations

  
Tides and Currents Weather Stations Pressure Air Temp Water Temp Dewpoint Dewpoint Depression Visibility Wind Speed Wind Dir Waves Ship Positions
date/time (UTC)wind fromknots sea level pressurealtimeterstation pressurevisibilityair tempwater tempwave heightnotes
2019-Dec-14 00:00 301 1 gusting 5 2.2
2019-Dec-13 23:45 288 4 gusting 6 2.2
2019-Dec-13 23:30 333 2 gusting 6 2.2
2019-Dec-13 23:17 314 1 gusting 5 2.2
2019-Dec-13 23:02 330 1 gusting 5 2.2
2019-Dec-13 22:47 053 2 gusting 6 2.2
2019-Dec-13 22:33 324 2 gusting 4 2.2
2019-Dec-13 22:17 032 1 gusting 5 2.2
2019-Dec-13 22:02 339 2 gusting 4 2.8
2019-Dec-13 21:46 037 0 gusting 3 2.8
2019-Dec-13 21:32 276 0 gusting 3 2.2
2019-Dec-13 21:16 068 0 gusting 3 2.2
2019-Dec-13 21:02 039 0 gusting 4 2.2
2019-Dec-13 20:47 023 2.2
2019-Dec-13 20:31 016 0 gusting 2 2.2
2019-Dec-13 20:17 349 2 gusting 6 2.2
2019-Dec-13 20:01 344 1 gusting 4 2.2
2019-Dec-13 19:45 001 2 gusting 6 2.2
2019-Dec-13 19:31 329 0 gusting 4 2.2
2019-Dec-13 19:16 302 0 gusting 3 2.2
2019-Dec-13 19:01 032 0 gusting 2 2.2
2019-Dec-13 18:46 023 1 gusting 3 1.7
2019-Dec-13 18:30 018 1.7
2019-Dec-13 18:15 339 0 gusting 5 1.7
2019-Dec-13 18:00 001 1.7
2019-Dec-13 17:45 068 1 gusting 3 1.7
2019-Dec-13 17:30 005 0 gusting 3 1.1
2019-Dec-13 17:15 351 3 gusting 6 1.1
2019-Dec-13 17:00 323 1 gusting 5 1.1
2019-Dec-13 16:47 340 2 gusting 4 1.1
2019-Dec-13 16:32 021 2 gusting 4 1.1
2019-Dec-13 16:17 291 1.1
2019-Dec-13 16:02 030 1 gusting 3 1.1
2019-Dec-13 15:46 328 1 gusting 5 0.6
2019-Dec-13 15:31 314 2 gusting 4 0.6
2019-Dec-13 15:16 015 2 gusting 3 0.6
2019-Dec-13 15:01 281 0 gusting 2 0.6
2019-Dec-13 14:46 321 0.6
2019-Dec-13 14:31 314 1 gusting 4 0.6
2019-Dec-13 14:16 342 0 gusting 3 0.6
2019-Dec-13 14:01
2019-Dec-13 13:45
2019-Dec-13 13:30
2019-Dec-13 13:16
2019-Dec-13 13:00
2019-Dec-13 12:45
2019-Dec-13 12:30
2019-Dec-13 12:15
2019-Dec-13 12:02
2019-Dec-13 11:47
2019-Dec-13 11:34
2019-Dec-13 11:16
2019-Dec-13 11:01
2019-Dec-13 10:46
2019-Dec-13 10:31
2019-Dec-13 10:16
2019-Dec-13 10:00
2019-Dec-13 09:47
2019-Dec-13 09:30
2019-Dec-13 09:15
2019-Dec-13 09:00
2019-Dec-13 08:45
2019-Dec-13 08:32
2019-Dec-13 08:16 297 0 gusting 2 -0.6
2019-Dec-13 08:02 354 1 gusting 4 -0.0
2019-Dec-13 07:48 322 0 gusting 2 -0.0
2019-Dec-13 07:33 009 -0.6
2019-Dec-13 07:02 322 -1.1
2019-Dec-13 06:46 322 -1.1
2019-Dec-13 06:31 321 0 gusting 1 -1.1
2019-Dec-13 06:17 128 -1.7
2019-Dec-13 06:01 128 -1.7
2019-Dec-13 05:45 128 -1.7
2019-Dec-13 05:00 128 -1.1
2019-Dec-13 04:45 128 -1.7
2019-Dec-13 04:31 128 -1.7
2019-Dec-13 04:15 128 -1.7
2019-Dec-13 04:00 128 -1.7
2019-Dec-13 03:46 128 -2.2
2019-Dec-13 03:30 128 -2.2
2019-Dec-13 03:15 127 -2.2
2019-Dec-13 03:00 128 -2.2
2019-Dec-13 02:45 128 -1.7
2019-Dec-13 02:30 128 -1.7
2019-Dec-13 02:15 128 -2.2
2019-Dec-13 02:00 129 -2.2
2019-Dec-13 01:45 128 -2.2
2019-Dec-13 01:30 128 -1.7
2019-Dec-13 01:15 128 -1.7
2019-Dec-13 01:00 129 -1.7
2019-Dec-13 00:45 128 -2.2
2019-Dec-13 00:30 128 -1.7
2019-Dec-13 00:15 128 -1.7
2019-Dec-13 00:00 128 -1.7
2019-Dec-12 23:45 128 -1.1
2019-Dec-12 23:30 110 -0.6
2019-Dec-12 23:15 110 -0.0
2019-Dec-12 23:00 145 -0.0
2019-Dec-12 22:47 203 0.6
2019-Dec-12 22:32 102 1.1
2019-Dec-12 22:16 101 1.1
2019-Dec-12 22:03 101 1.7
2019-Dec-12 21:46 086 0 gusting 3 1.7
2019-Dec-12 21:33 100 2.2
2019-Dec-12 21:17 108 0 gusting 2 2.8
2019-Dec-12 21:02 086 1 gusting 5 2.8
2019-Dec-12 20:48 073 0 gusting 3 2.8
2019-Dec-12 20:31 085 2 gusting 4 2.8
2019-Dec-12 20:17 094 3 gusting 4 3.3
2019-Dec-12 20:01 207 0 gusting 2 3.3
2019-Dec-12 19:48 127 1 gusting 3 3.9
2019-Dec-12 19:31 105 0 gusting 4 3.3
2019-Dec-12 19:16 087 2 gusting 5 3.3
2019-Dec-12 19:01 124 0 gusting 5 3.3
2019-Dec-12 18:47 098 1 gusting 6 3.3
2019-Dec-12 18:32 086 2 gusting 6 2.8
2019-Dec-12 18:17 082 3.3
2019-Dec-12 18:03 082 0 gusting 6 2.8
2019-Dec-12 17:48 155 2.2
2019-Dec-12 17:32 057 3 gusting 6 1.7
2019-Dec-12 17:17 015 0 gusting 5 1.7
2019-Dec-12 17:01 098 0 gusting 6 2.2
2019-Dec-12 16:47 086 1.7
2019-Dec-12 16:31 114 1.7
2019-Dec-12 16:15 221 1 gusting 6 1.1
2019-Dec-12 16:01 056 0 gusting 5 0.6
2019-Dec-12 15:45 070 0 gusting 4 0.6
2019-Dec-12 15:31 086 5 gusting 7 -0.0
2019-Dec-12 15:15 091 2 gusting 6 -0.0
2019-Dec-12 15:00 067 2 gusting 6 -0.0
2019-Dec-12 14:46 161 2 gusting 6 -0.0
2019-Dec-12 14:31 124 1 gusting 6 -0.6
2019-Dec-12 14:15 113 0 gusting 3 -0.6
2019-Dec-12 14:00 151 0 gusting 3 -1.1
2019-Dec-12 13:45 122 0 gusting 3 -1.1
2019-Dec-12 13:30 085 1 gusting 3 -1.7
2019-Dec-12 13:15 057 1 gusting 3 -1.7
2019-Dec-12 13:00 073 -2.2
2019-Dec-12 12:45 072 -2.8
2019-Dec-12 12:30
2019-Dec-12 12:17
2019-Dec-12 12:03
2019-Dec-12 11:48
2019-Dec-12 11:32
2019-Dec-12 11:16
2019-Dec-12 11:01
2019-Dec-12 10:46
2019-Dec-12 10:31
2019-Dec-12 10:16
2019-Dec-12 10:01
2019-Dec-12 09:46
2019-Dec-12 09:30
2019-Dec-12 09:16
2019-Dec-12 09:00
2019-Dec-12 08:47
2019-Dec-12 08:31
2019-Dec-12 08:17
2019-Dec-12 08:02
2019-Dec-12 07:46 009 0 gusting 4 -1.1
2019-Dec-12 07:31 027 2 gusting 7 -0.6
2019-Dec-12 07:01 021 4 gusting 8 -0.6
2019-Dec-12 06:46 011 2 gusting 6 -0.0
2019-Dec-12 06:31 347 1 gusting 6 -0.0
2019-Dec-12 06:16 313 5 gusting 8 -0.0
2019-Dec-12 06:01 039 3 gusting 7 -0.0
2019-Dec-12 05:46 326 1 gusting 5 -0.0
2019-Dec-12 05:15 336 3 gusting 8 -0.0
2019-Dec-12 05:01 333 3 gusting 6 -0.6
2019-Dec-12 04:45 001 2 gusting 6 -0.6
2019-Dec-12 04:31 354 3 gusting 6 -0.0
2019-Dec-12 04:15 356 6 gusting 9 -0.0
2019-Dec-12 04:00 034 2 gusting 6 -0.0
2019-Dec-12 03:45 341 2 gusting 6 -0.0
2019-Dec-12 03:30 021 4 gusting 7 -0.0
2019-Dec-12 03:15 013 1 gusting 3 -0.0
2019-Dec-12 03:02 345 2 gusting 8 -0.0
2019-Dec-12 02:47 316 2 gusting 9 -0.0
2019-Dec-12 02:34 331 2 gusting 5 0.6
2019-Dec-12 02:19 011 0 gusting 6 0.6
2019-Dec-12 02:02 326 1 gusting 6 1.1
2019-Dec-12 01:46 309 1 gusting 5 1.1
2019-Dec-12 01:31 332 2 gusting 6 1.1
2019-Dec-12 01:16 003 6 gusting 8 1.1
2019-Dec-12 01:01 005 -0.0
2019-Dec-12 00:46 011 -1.1
2019-Dec-12 00:31 291 -0.6
2019-Dec-12 00:16 291 -0.6
2019-Dec-12 00:01 291 -0.0